N22318 KCOS-

Flight info

Callsign N22318
Flight time N/A
Altitude VFR
Route /N/
Aircraft C172/L-VGD/C

Departure

Time 2026-05-06 04:15
Airport City of Colorado Springs Municipal Airport (KCOS)

Arrival

Time N/A
Airport -
Time Latitude Longitude Altitude Speed Heading
2026-05-06 04:08 38.81013 -104.69609 6189 ft 0 kts 130°
2026-05-06 04:09 38.81009 -104.69603 6189 ft 3 kts 137°
2026-05-06 04:09 38.80996 -104.69591 6189 ft 2 kts 142°
2026-05-06 04:09 38.80979 -104.69572 6189 ft 8 kts 136°
2026-05-06 04:09 38.80922 -104.69500 6189 ft 15 kts 133°
2026-05-06 04:10 38.80834 -104.69400 6189 ft 18 kts 161°
2026-05-06 04:10 38.80746 -104.69457 6190 ft 12 kts 226°
2026-05-06 04:10 38.80745 -104.69535 6190 ft 7 kts 304°
2026-05-06 04:10 38.80838 -104.69654 6191 ft 34 kts 316°
2026-05-06 04:11 38.81074 -104.69958 6188 ft 60 kts 314°
2026-05-06 04:11 38.81399 -104.70358 6218 ft 68 kts 316°
2026-05-06 04:11 38.81635 -104.70849 6245 ft 70 kts 294°
2026-05-06 04:11 38.81802 -104.71428 6319 ft 66 kts 288°
2026-05-06 04:12 38.81915 -104.72019 6345 ft 70 kts 277°
2026-05-06 04:12 38.81960 -104.72613 6443 ft 61 kts 281°
2026-05-06 04:12 38.82223 -104.73016 6419 ft 67 kts 344°
2026-05-06 04:12 38.82684 -104.73116 6451 ft 70 kts 348°
2026-05-06 04:13 38.83144 -104.73292 6537 ft 63 kts 335°
2026-05-06 04:13 38.83424 -104.73411 6545 ft 67 kts 342°
2026-05-06 04:13 38.83869 -104.73566 6597 ft 64 kts 347°
2026-05-06 04:13 38.84307 -104.73666 6648 ft 61 kts 347°
2026-05-06 04:14 38.84741 -104.73802 6653 ft 64 kts 345°
2026-05-06 04:14 38.85155 -104.74095 6644 ft 72 kts 315°
2026-05-06 04:14 38.85419 -104.74649 6710 ft 67 kts 296°
2026-05-06 04:14 38.85637 -104.75273 6722 ft 73 kts 289°
2026-05-06 04:15 38.85783 -104.75953 6735 ft 81 kts 283°
2026-05-06 04:15 38.85823 -104.76689 6705 ft 96 kts 270°
2026-05-06 04:15 38.85789 -104.77511 6846 ft 87 kts 264°
2026-05-06 04:15 38.85751 -104.78264 7008 ft 71 kts 283°
2026-05-06 04:16 38.85927 -104.78960 6764 ft 100 kts 281°
2026-05-06 04:16 38.86037 -104.79851 6790 ft 101 kts 278°
2026-05-06 04:16 38.86171 -104.80734 6823 ft 100 kts 288°
2026-05-06 04:16 38.86510 -104.81415 6940 ft 86 kts 309°
2026-05-06 04:17 38.86867 -104.82007 7035 ft 82 kts 312°
2026-05-06 04:17 38.87215 -104.82515 7091 ft 83 kts 312°
2026-05-06 04:17 38.87646 -104.83074 7114 ft 88 kts 316°
2026-05-06 04:17 38.88045 -104.83630 7226 ft 81 kts 305°
2026-05-06 04:18 38.88361 -104.84216 7222 ft 87 kts 304°
2026-05-06 04:18 38.88693 -104.84840 7365 ft 71 kts 300°
2026-05-06 04:18 38.88988 -104.85444 7333 ft 84 kts 310°
2026-05-06 04:18 38.89359 -104.85911 7435 ft 76 kts 317°
2026-05-06 04:19 38.89783 -104.86511 7240 ft 99 kts 315°
2026-05-06 04:19 38.90179 -104.87033 7421 ft 83 kts 329°
2026-05-06 04:19 38.90714 -104.87093 7492 ft 75 kts 11°
2026-05-06 04:19 38.91251 -104.87167 7453 ft 85 kts 313°
2026-05-06 04:20 38.91459 -104.87827 7504 ft 74 kts 296°
2026-05-06 04:20 38.91880 -104.88103 7513 ft 73 kts 359°
2026-05-06 04:20 38.92445 -104.88002 7448 ft 82 kts 27°
2026-05-06 04:20 38.92679 -104.87416 7454 ft 73 kts 22°
2026-05-06 04:21 38.93242 -104.87243 7294 ft 61 kts 347°
2026-05-06 04:21 38.93578 -104.87293 6765 ft 0 kts 309°